Location: St. Andrews
(45.0670°N, 67.0330°W)
Time: 22:48:45
(UTC-03:00)

Amateur Radio Satellites - All Passes

Search period start: 27 March 2015 22:18
Search period end: 28 March 2015 22:18
Location: St. Andrews, 45.0670°N, 67.0330°W

Satellite Date Start Highest point End Downlink Frequencies (MHz)
Time Altitude Azimuth
BRITE-PL 27 Mar 22:24:14 22:27:06 15° 270° (W) 22:29:41 437.365/2234.400
CUSAT 1 27 Mar 22:29:40 22:32:27 44° 282° (WNW) 22:35:00 437.405
ESTCUBE 1 27 Mar 22:30:45 22:33:14 15° 62° (ENE) 22:35:53 437.505/2401.250
CANX-2 27 Mar 22:34:10 22:37:00 17° 270° (W) 22:39:44 2200.000
HO-68 27 Mar 22:46:58 22:52:46 25° 269° (W) 22:58:23 435.675
AIST 2 27 Mar 22:48:30 22:49:52 11° 251° (WSW) 22:51:00 435.215
CUTE 1.7 + AOD 2 27 Mar 22:49:16 22:51:25 13° 272° (W) 22:53:22 437.475
SO-50 27 Mar 22:50:30 22:53:14 15° 332° (NNW) 22:55:54 436.795
50 SAT 27 Mar 22:52:48 22:56:26 38° 71° (ENE) 23:00:08 437.505
UKube-1 27 Mar 22:58:51 23:03:12 77° 257° (WSW) 23:07:34 .
DX 1 27 Mar 23:06:27 23:10:47 61° 259° (W) 23:15:08 434.975-435.025
DANDE 27 Mar 23:07:30 23:09:54 20° 286° (WNW) 23:12:01 436.750
DELFI C3 27 Mar 23:11:06 23:14:40 28° 265° (W) 23:18:14 145.870
CINEMA 3 27 Mar 23:12:55 23:15:45 17° 270° (W) 23:18:25 145.822/145.860
HUMSAT D 27 Mar 23:18:46 23:22:51 71° 258° (WSW) 23:26:59 437.325/437.525
QB50P2 27 Mar 23:20:18 23:21:36 11° 87° (E) 23:23:09 145.880/145.840
Oscar 11 27 Mar 23:31:19 23:34:04 16° 271° (W) 23:36:40 145.826/435.025
UWE-3 27 Mar 23:36:33 23:39:41 20° 268° (W) 23:42:44 435.000/436.395/437.385
FUNcube-1 27 Mar 23:37:03 23:40:27 24° 267° (W) 23:43:50 145.935
CUBEBUG 2 27 Mar 23:38:00 23:40:44 16° 270° (W) 23:43:19 437.445
UNISAT 6 27 Mar 23:38:01 23:42:10 35° 96° (E) 23:46:27 437.425
VELOX 1 27 Mar 23:38:26 23:42:53 66° 258° (WSW) 23:47:19 145.980
AISAT 27 Mar 23:42:18 23:46:42 59° 259° (W) 23:51:06 437.250
CUBEBUG 1 27 Mar 23:44:17 23:48:40 66° 74° (ENE) 23:53:03 437.445
POPSAT HIP 1 27 Mar 23:47:57 23:51:15 22° 93° (E) 23:54:37 437.405
TIGRISAT 27 Mar 23:49:05 23:53:26 44° 98° (E) 23:57:52 435.000
ZACube-1 27 Mar 23:49:49 23:52:44 18° 269° (W) 23:55:33 437.345
BUGSAT 1 27 Mar 23:57:54 00:00:49 20° 92° (E) 00:03:50 437.445
TISAT 1 27 Mar 23:58:57 00:02:13 22° 66° (ENE) 00:05:32 437.305
NANOSAT C BR1 27 Mar 23:59:08 00:02:48 29° 95° (E) 00:06:31 145.865
POLYITAN 1 28 Mar 00:01:29 00:05:16 31° 96° (E) 00:09:06 437.675
SPROUT 28 Mar 00:01:47 00:05:24 27° 68° (ENE) 00:09:05 437.525
PCSat 28 Mar 00:03:43 00:08:38 34° 46° (NE) 00:13:33 145.827
ESTCUBE 1 28 Mar 00:05:06 00:09:38 69° 258° (WSW) 00:14:13 437.505/2401.250
YUBILEINY 28 Mar 00:07:14 00:13:24 21° 57° (ENE) 00:19:54 435.215
RS-15 28 Mar 00:14:12 00:23:31 29° 347° (NNW) 00:33:02 29.354- 29.394
ANTELSAT 28 Mar 00:18:13 00:22:49 90° 101° (ESE) 00:27:28 437.575/2403.000
ISS 28 Mar 00:18:56 00:21:55 34° 141° (SE) 00:24:56 145.825
50 SAT 28 Mar 00:28:52 00:31:35 17° 269° (W) 00:34:12 437.505
QB50P1 28 Mar 00:39:41 00:43:56 81° 102° (ESE) 00:48:10 145.935-145.965
ITUPSAT 1 28 Mar 00:41:24 00:43:33 13° 59° (ENE) 00:45:55 437.325
DUCHIFAT 1 28 Mar 00:42:40 00:46:55 85° 107° (ESE) 00:51:08 145.980
QB50P2 28 Mar 00:53:51 00:58:05 70° 286° (WNW) 01:02:18 145.880/145.840
UNISAT 6 28 Mar 01:15:02 01:18:52 27° 293° (WNW) 01:22:40 437.425
CUBEBUG 1 28 Mar 01:23:23 01:25:34 13° 272° (W) 01:27:32 437.445
POPSAT HIP 1 28 Mar 01:23:23 01:27:16 35° 290° (WNW) 01:31:06 437.405
TIGRISAT 28 Mar 01:26:28 01:29:57 22° 295° (WNW) 01:33:24 435.000
SWISSCUBE 28 Mar 01:27:31 01:31:53 36° 68° (ENE) 01:36:19 437.505
BEESAT 28 Mar 01:30:51 01:35:12 36° 68° (ENE) 01:39:36 436.000
BUGSAT 1 28 Mar 01:32:45 01:36:29 36° 290° (WNW) 01:40:10 437.445
TISAT 1 28 Mar 01:33:55 01:37:50 36° 263° (W) 01:41:45 437.305
NANOSAT C BR1 28 Mar 01:35:01 01:38:38 27° 292° (WNW) 01:42:10 145.865
POLYITAN 1 28 Mar 01:37:35 01:41:07 26° 293° (WNW) 01:44:36 437.675
SPROUT 28 Mar 01:37:39 01:41:27 30° 265° (W) 01:45:13 437.525
PCSat 28 Mar 01:47:03 01:52:12 44° 246° (WSW) 01:57:17 145.827
ISS 28 Mar 01:55:09 01:58:17 43° 339° (NNW) 02:01:25 145.825
ANTELSAT 28 Mar 01:57:15 01:59:01 12° 300° (WNW) 02:00:35 437.575/2403.000
YUBILEINY 28 Mar 02:02:54 02:11:49 87° 83° (E) 02:20:37 435.215
KKS-1 28 Mar 02:10:02 02:12:56 18° 63° (ENE) 02:15:58 437.445
Oscar 19 28 Mar 02:11:02 02:15:14 25° 93° (E) 02:19:32 437.125/150
ITUPSAT 1 28 Mar 02:15:59 02:20:49 87° 260° (W) 02:25:42 437.325
SO-50 28 Mar 02:17:27 02:18:53 11° 21° (NNE) 02:20:26 436.795
QB50P1 28 Mar 02:17:46 02:19:15 11° 299° (WNW) 02:20:33 145.935-145.965
DUCHIFAT 1 28 Mar 02:21:00 02:22:10 11° 300° (WNW) 02:23:08 145.980
RS-15 28 Mar 02:30:26 02:40:14 33° 21° (NNE) 02:50:33 29.354- 29.394
STARS 28 Mar 02:45:31 02:49:05 25° 66° (ENE) 02:52:44 437.465
SWISSCUBE 28 Mar 03:05:42 03:09:51 28° 266° (W) 03:13:55 437.505
BEESAT 28 Mar 03:09:00 03:13:08 28° 266° (W) 03:17:13 436.000
ITAMSAT 1 28 Mar 03:12:23 03:16:53 30° 94° (E) 03:21:26 435.822/435.867
ISS 28 Mar 03:32:29 03:35:14 24° 359° (N) 03:37:58 145.825
KKS-1 28 Mar 03:44:54 03:49:14 53° 260° (W) 03:53:36 437.445
Oscar 19 28 Mar 03:49:54 03:54:49 44° 291° (WNW) 03:59:42 437.125/150
Gurwin Techsat 1B 28 Mar 03:50:41 03:55:54 54° 99° (E) 04:01:06 435.225
SO-50 28 Mar 03:56:20 04:00:55 36° 44° (NE) 04:05:29 436.795
ITUPSAT 1 28 Mar 03:58:41 03:59:34 10° 275° (W) 04:00:07 437.325
M-CUBED/EXP-1 PRIME 28 Mar 04:00:36 04:01:29 11° 51° (NE) 04:02:35 437.505
YUBILEINY 28 Mar 04:01:21 04:07:36 21° 281° (WNW) 04:13:26 435.215
AIST 1 28 Mar 04:02:48 04:04:34 13° 85° (E) 04:06:33
HORYU 2 28 Mar 04:10:41 04:13:55 20° 91° (E) 04:17:17 437.375
STARS 28 Mar 04:21:26 04:25:26 34° 263° (W) 04:29:26 437.465
RS-15 28 Mar 04:43:31 04:54:58 74° 50° (NE) 05:06:57 29.354- 29.394
ITAMSAT 1 28 Mar 04:51:41 04:56:29 38° 293° (WNW) 05:01:12 435.822/435.867
AO-7 28 Mar 04:54:39 05:02:06 37° 96° (E) 05:09:40 29.400- 29.500
MOZHAYETS 4 28 Mar 05:07:16 05:11:50 65° 74° (ENE) 05:16:28
JAS-2 28 Mar 05:07:51 05:15:11 43° 94° (E) 05:22:06 435.910
AUBIESAT-1 28 Mar 05:08:51 05:12:38 41° 64° (ENE) 05:16:47 437.475
ISS 28 Mar 05:09:07 05:12:11 39° 19° (NNE) 05:15:15 145.825
Gurwin Techsat 1B 28 Mar 05:31:24 05:35:34 23° 297° (WNW) 05:39:36 435.225
M-CUBED/EXP-1 PRIME 28 Mar 05:31:35 05:35:35 79° 68° (ENE) 05:39:58 437.505
O/OREOS (USA 219) 28 Mar 05:32:10 05:36:46 87° 119° (ESE) 05:41:25 437.305
SO-50 28 Mar 05:36:55 05:41:31 38° 243° (WSW) 05:46:02 436.795
AIST 1 28 Mar 05:37:20 05:41:43 65° 280° (W) 05:46:07
HORYU 2 28 Mar 05:46:32 05:50:51 45° 289° (WNW) 05:55:08 437.375
GONETS M04 28 Mar 06:20:09 06:27:42 31° 64° (ENE) 06:35:26
PRISM 28 Mar 06:43:41 06:47:41 44° 71° (ENE) 06:51:45 437.425
AUBIESAT-1 28 Mar 06:44:40 06:47:44 20° 265° (W) 06:50:54 437.475
ISS 28 Mar 06:45:33 06:48:38 40° 217° (SW) 06:51:40 145.825
MOZHAYETS 4 28 Mar 06:47:01 06:49:37 14° 273° (W) 06:52:02
AO-7 28 Mar 06:47:13 06:55:17 56° 296° (WNW) 07:03:16 29.400- 29.500
CUBESAT XI-V 28 Mar 06:49:43 06:54:22 61° 73° (ENE) 06:59:02 437.345
JAS-2 28 Mar 06:52:51 07:00:16 46° 294° (WNW) 07:07:10 435.910
RS-15 28 Mar 06:56:36 07:06:45 36° 252° (WSW) 07:16:59 29.354- 29.394
STRAND 1 28 Mar 06:58:21 07:03:14 46° 69° (ENE) 07:08:10 437.568
Cubesat XI-IV 28 Mar 07:00:27 07:04:50 26° 93° (E) 07:09:17 437.490
CUTE-I 28 Mar 07:00:46 07:05:07 26° 93° (E) 07:09:33 437.470
M-CUBED/EXP-1 PRIME 28 Mar 07:10:42 07:11:17 10° 271° (W) 07:11:36 437.505
O/OREOS (USA 219) 28 Mar 07:14:25 07:16:57 14° 314° (NW) 07:19:19 437.305
CUSAT 1 28 Mar 07:21:58 07:22:38 10° 68° (ENE) 07:23:36 437.405
VERMONT LUNAR 28 Mar 07:33:58 07:36:43 23° 163° (SSE) 07:39:29 437.305
DANDE 28 Mar 07:59:58 08:02:33 18° 72° (ENE) 08:05:46 436.750
PHONESAT 2.4 28 Mar 08:01:44 08:04:23 20° 159° (SSE) 08:07:05 2401.200-2431.200
GONETS M04 28 Mar 08:16:34 08:25:18 65° 267° (W) 08:33:58
PRISM 28 Mar 08:20:28 08:23:26 18° 269° (W) 08:26:18 437.425
CUBESAT XI-V 28 Mar 08:29:20 08:32:17 16° 272° (W) 08:35:04 437.345
STRAND 1 28 Mar 08:38:28 08:42:41 24° 267° (W) 08:46:49 437.568
Cubesat XI-IV 28 Mar 08:40:05 08:45:10 45° 291° (WNW) 08:50:12 437.490
CUTE-I 28 Mar 08:40:21 08:45:27 45° 291° (WNW) 08:50:28 437.470
JAS-2 28 Mar 08:40:58 08:43:30 12° 315° (NW) 08:45:36 435.910
AO-7 28 Mar 08:42:00 08:46:28 15° 318° (NW) 08:50:35 29.400- 29.500
BRITE-PL 28 Mar 08:47:26 08:49:27 13° 89° (E) 08:51:40 437.365/2234.400
CUSAT 1 28 Mar 09:01:37 09:05:36 78° 259° (WSW) 09:10:57 437.405
VERMONT LUNAR 28 Mar 09:10:54 09:14:02 37° 179° (S) 09:17:11 437.305
AAUSAT CUBESAT 2 28 Mar 09:26:30 09:27:58 12° 87° (E) 09:29:39 437.432
SEEDS 28 Mar 09:26:39 09:29:25 17° 90° (E) 09:32:18 437.485
DOVE 4 28 Mar 09:36:41 09:39:54 21° 93° (E) 09:43:20 437.250
PHONESAT 2.4 28 Mar 09:38:59 09:42:17 38° 175° (S) 09:45:37 2401.200-2431.200
GOMX 1 28 Mar 09:40:27 09:44:15 32° 96° (E) 09:48:14 467.674
DANDE 28 Mar 09:42:17 09:45:50 38° 262° (W) 09:50:25 436.750
ANTELSAT 28 Mar 09:46:01 09:47:27 12° 60° (ENE) 09:49:06 437.575/2403.000
COMPASS 1 28 Mar 09:50:49 09:54:19 25° 93° (E) 09:57:53 437.405
HO-68 28 Mar 10:10:16 10:17:23 59° 102° (ESE) 10:24:29 435.675
QB50P2 28 Mar 10:15:37 10:17:24 13° 62° (ENE) 10:19:22 145.880/145.840
CANX-2 28 Mar 10:15:41 10:20:00 73° 102° (ESE) 10:24:19 2200.000
GONETS M04 28 Mar 10:16:52 10:20:33 13° 287° (WNW) 10:23:36
BRITE-PL 28 Mar 10:24:20 10:28:26 56° 286° (WNW) 10:32:38 437.365/2234.400
CUTE 1.7 + AOD 2 28 Mar 10:29:51 10:34:11 87° 284° (WNW) 10:38:30 437.475
UNISAT 6 28 Mar 10:39:17 10:43:13 38° 70° (ENE) 10:47:15 437.425
POPSAT HIP 1 28 Mar 10:43:02 10:46:19 23° 66° (ENE) 10:49:41 437.405
BEESAT 3 28 Mar 10:43:47 10:46:35 19° 113° (ESE) 10:49:32 437.485
UKube-1 28 Mar 10:45:51 10:48:19 15° 90° (E) 10:50:57 .
VERMONT LUNAR 28 Mar 10:48:31 10:51:23 26° 195° (SSW) 10:54:15 437.305
DELFI C3 28 Mar 10:48:31 10:52:14 32° 96° (E) 10:55:58 145.870
TIGRISAT 28 Mar 10:50:04 10:54:08 48° 72° (ENE) 10:58:18 435.000
BUGSAT 1 28 Mar 10:50:15 10:53:14 20° 66° (ENE) 10:56:19 437.445
DX 1 28 Mar 10:53:39 10:56:45 19° 92° (E) 10:59:58 434.975-435.025
NANOSAT C BR1 28 Mar 10:53:52 10:57:29 29° 68° (ENE) 11:01:10 145.865
POLYITAN 1 28 Mar 10:56:41 11:00:24 31° 69° (ENE) 11:04:10 437.675
AAUSAT CUBESAT 2 28 Mar 10:59:56 11:04:09 68° 285° (WNW) 11:08:21 437.432
SEEDS 28 Mar 11:01:24 11:05:33 47° 287° (WNW) 11:09:39 437.485
HUMSAT D 28 Mar 11:01:58 11:04:38 17° 90° (E) 11:07:27 437.325/437.525
CINEMA 3 28 Mar 11:03:23 11:07:46 88° 103° (ESE) 11:12:19 145.822/145.860
AIST 2 28 Mar 11:10:42 11:11:40 11° 109° (ESE) 11:12:52 435.215
DOVE 4 28 Mar 11:13:52 11:17:52 39° 289° (WNW) 11:21:59 437.250
Oscar 11 28 Mar 11:14:34 11:18:58 82° 103° (ESE) 11:23:20 145.826/435.025
PHONESAT 2.4 28 Mar 11:17:05 11:20:17 31° 192° (SSW) 11:23:29 2401.200-2431.200
GOMX 1 28 Mar 11:18:52 11:22:21 25° 292° (WNW) 11:25:51 467.674
ANTELSAT 28 Mar 11:19:24 11:23:40 81° 257° (WSW) 11:28:02 437.575/2403.000
FUNcube-1 28 Mar 11:22:13 11:26:29 51° 99° (E) 11:30:50 145.935
UWE-3 28 Mar 11:22:43 11:27:05 66° 102° (ESE) 11:31:32 435.000/436.395/437.385
CUBEBUG 2 28 Mar 11:24:46 11:29:10 83° 103° (ESE) 11:33:41 437.445
COMPASS 1 28 Mar 11:26:15 11:30:04 32° 291° (WNW) 11:33:50 437.405
VELOX 1 28 Mar 11:27:53 11:31:05 20° 92° (E) 11:34:23 145.980
AISAT 28 Mar 11:31:46 11:35:12 22° 93° (E) 11:38:43 437.250
QB50P1 28 Mar 11:34:15 11:38:28 79° 76° (ENE) 11:42:42 145.935-145.965
CUBEBUG 1 28 Mar 11:34:20 11:34:49 10° 86° (E) 11:35:35 437.445
ZACube-1 28 Mar 11:34:30 11:38:52 71° 102° (ESE) 11:43:18 437.345
DUCHIFAT 1 28 Mar 11:36:56 11:41:08 82° 76° (ENE) 11:45:22 145.980
BEESAT 2 28 Mar 11:41:29 11:45:32 60° 121° (ESE) 11:49:39 435.950
QB50P2 28 Mar 11:48:36 11:52:49 72° 258° (WSW) 11:57:03 145.880/145.840
CANX-2 28 Mar 11:53:22 11:55:26 13° 298° (WNW) 11:57:19 2200.000
ESTCUBE 1 28 Mar 11:56:36 12:00:03 22° 92° (E) 12:03:34 437.505/2401.250
HO-68 28 Mar 11:58:34 12:04:47 32° 301° (WNW) 12:10:52 435.675
50 SAT 28 Mar 12:03:14 12:07:09 48° 99° (E) 12:11:05 437.505
CUTE 1.7 + AOD 2 28 Mar 12:08:43 12:09:29 10° 300° (WNW) 12:10:01 437.475
UNISAT 6 28 Mar 12:16:55 12:20:13 21° 268° (W) 12:23:27 437.425
POPSAT HIP 1 28 Mar 12:18:10 12:22:04 35° 263° (W) 12:25:57 437.405
BEESAT 3 28 Mar 12:20:20 12:24:20 50° 310° (NW) 12:28:24 437.485
UKube-1 28 Mar 12:20:38 12:24:53 54° 288° (WNW) 12:29:06 .
DELFI C3 28 Mar 12:23:58 12:27:17 23° 293° (WNW) 12:30:31 145.870
BUGSAT 1 28 Mar 12:24:34 12:28:31 40° 262° (W) 12:32:25 437.445
TIGRISAT 28 Mar 12:28:26 12:31:15 17° 270° (W) 12:33:57 435.000
DX 1 28 Mar 12:29:07 12:33:15 42° 290° (WNW) 12:37:20 434.975-435.025
NANOSAT C BR1 28 Mar 12:29:43 12:33:21 27° 265° (W) 12:36:56 145.865
POLYITAN 1 28 Mar 12:32:51 12:36:23 25° 266° (W) 12:39:51 437.675
HUMSAT D 28 Mar 12:36:37 12:40:43 48° 288° (WNW) 12:44:50 437.325/437.525
CINEMA 3 28 Mar 12:43:05 12:44:28 11° 299° (WNW) 12:45:37 145.822/145.860
AIST 2 28 Mar 12:45:24 12:49:40 87° 305° (NW) 12:54:00 435.215
Oscar 11 28 Mar 12:52:49 12:54:35 12° 299° (WNW) 12:56:10 145.826/435.025
PHONESAT 2.4 28 Mar 12:56:19 12:58:03 13° 207° (SSW) 12:59:42 2401.200-2431.200
FUNcube-1 28 Mar 12:59:32 13:02:31 18° 295° (WNW) 13:05:24 145.935
UWE-3 28 Mar 13:00:42 13:03:12 15° 297° (WNW) 13:05:35 435.000/436.395/437.385
CUBEBUG 2 28 Mar 13:03:34 13:05:21 12° 298° (WNW) 13:06:57 437.445
VELOX 1 28 Mar 13:03:43 13:07:54 42° 290° (WNW) 13:12:03 145.980
CUBEBUG 1 28 Mar 13:07:31 13:11:53 80° 283° (WNW) 13:16:11 437.445
AISAT 28 Mar 13:07:52 13:11:58 38° 291° (WNW) 13:16:01 437.250
ZACube-1 28 Mar 13:12:32 13:14:47 14° 297° (WNW) 13:16:53 437.345
YUBILEINY 28 Mar 13:12:49 13:18:38 21° 79° (ENE) 13:24:51 435.215
TISAT 1 28 Mar 13:16:34 13:20:13 29° 95° (E) 13:23:55 437.305
BEESAT 2 28 Mar 13:20:53 13:24:04 20° 321° (NW) 13:27:12 435.950
SPROUT 28 Mar 13:21:51 13:25:53 39° 97° (E) 13:29:56 437.525
Oscar 19 28 Mar 13:29:42 13:34:31 44° 70° (ENE) 13:39:24 437.125/150
ESTCUBE 1 28 Mar 13:32:52 13:37:09 41° 290° (WNW) 13:41:21 437.505/2401.250
Gurwin Techsat 1B 28 Mar 13:36:38 13:39:43 16° 59° (ENE) 13:43:00 435.225
50 SAT 28 Mar 13:39:10 13:41:45 16° 295° (WNW) 13:44:13 437.505
O/OREOS (USA 219) 28 Mar 14:01:25 14:05:22 28° 55° (NE) 14:09:19 437.305
BEESAT 3 28 Mar 14:02:17 14:03:25 11° 332° (NNW) 14:04:26 437.485
AO-7 28 Mar 14:07:56 14:12:20 16° 43° (NE) 14:17:04 29.400- 29.500
ITUPSAT 1 28 Mar 14:15:30 14:19:03 21° 91° (E) 14:22:44 437.325
AIST 2 28 Mar 14:26:12 14:28:57 16° 326° (NW) 14:31:36 435.215
ITAMSAT 1 28 Mar 14:32:06 14:37:11 56° 71° (ENE) 14:42:19 435.822/435.867
PCSat 28 Mar 14:49:12 14:52:38 18° 107° (ESE) 14:56:17 145.827
TISAT 1 28 Mar 14:52:24 14:55:59 27° 292° (WNW) 14:59:30 437.305
SPROUT 28 Mar 14:58:29 15:01:47 21° 294° (WNW) 15:04:58 437.525
SWISSCUBE 28 Mar 15:03:10 15:07:57 66° 102° (ESE) 15:12:41 437.505
YUBILEINY 28 Mar 15:05:34 15:14:24 88° 279° (W) 15:23:19 435.215
BEESAT 28 Mar 15:06:20 15:11:08 65° 102° (ESE) 15:15:53 436.000
Oscar 19 28 Mar 15:09:53 15:14:06 25° 267° (W) 15:18:15 437.125/150
HORYU 2 28 Mar 15:11:06 15:14:36 24° 65° (ENE) 15:18:13 437.375
Gurwin Techsat 1B 28 Mar 15:13:47 15:19:06 81° 255° (WSW) 15:24:29 435.225
JAS-2 28 Mar 15:22:17 15:27:48 26° 57° (ENE) 15:33:53 435.910
KKS-1 28 Mar 15:34:24 15:38:03 25° 94° (E) 15:41:47 437.445
O/OREOS (USA 219) 28 Mar 15:40:42 15:44:51 34° 254° (WSW) 15:48:54 437.305
AIST 1 28 Mar 15:42:43 15:46:44 36° 74° (ENE) 15:50:44
ITUPSAT 1 28 Mar 15:52:38 15:57:15 47° 290° (WNW) 16:01:50 437.325
AO-7 28 Mar 15:55:32 16:03:36 59° 65° (ENE) 16:11:43 29.400- 29.500
STARS 28 Mar 16:08:55 16:12:59 36° 97° (E) 16:17:04 437.465
ITAMSAT 1 28 Mar 16:13:11 16:17:06 20° 269° (W) 16:20:53 435.822/435.867
PCSat 28 Mar 16:30:07 16:35:32 73° 305° (NW) 16:41:00 145.827
SWISSCUBE 28 Mar 16:42:14 16:45:21 17° 299° (WNW) 16:48:17 437.505
BEESAT 28 Mar 16:45:23 16:48:31 17° 299° (WNW) 16:51:29 436.000
HORYU 2 28 Mar 16:46:58 16:51:06 37° 263° (W) 16:55:15 437.375
Gurwin Techsat 1B 28 Mar 16:58:38 17:00:04 11° 276° (W) 17:01:09 435.225
MOZHAYETS 4 28 Mar 17:02:06 17:04:23 14° 87° (E) 17:06:54
JAS-2 28 Mar 17:05:11 17:12:05 77° 258° (WSW) 17:19:46 435.910
YUBILEINY 28 Mar 17:06:14 17:12:47 21° 303° (WNW) 17:19:01 435.215
KKS-1 28 Mar 17:10:44 17:14:47 34° 291° (WNW) 17:18:48 437.445
AIST 1 28 Mar 17:20:56 17:24:12 20° 272° (W) 17:27:19
STARS 28 Mar 17:45:43 17:49:18 24° 294° (WNW) 17:52:49 437.465
AO-7 28 Mar 17:49:24 17:56:52 35° 265° (W) 18:04:12 29.400- 29.500
PCSat 28 Mar 18:16:25 18:19:59 17° 326° (NW) 18:23:25 145.827
BEESAT 2 28 Mar 18:22:25 18:24:26 13° 32° (NNE) 18:26:33 435.950
AUBIESAT-1 28 Mar 18:22:47 18:26:54 28° 99° (E) 18:31:00 437.475
Cubesat XI-IV 28 Mar 18:24:12 18:29:23 52° 70° (ENE) 18:34:37 437.490
CUTE-I 28 Mar 18:24:21 18:29:31 51° 70° (ENE) 18:34:44 437.470
MOZHAYETS 4 28 Mar 18:37:32 18:42:12 68° 285° (WNW) 18:46:47
M-CUBED/EXP-1 PRIME 28 Mar 18:45:54 18:50:39 51° 104° (ESE) 18:55:20 437.505
CUBESAT XI-V 28 Mar 18:46:19 18:48:24 13° 87° (E) 18:50:42 437.345
JAS-2 28 Mar 18:54:40 18:58:41 15° 280° (W) 19:02:26 435.910
HO-68 28 Mar 18:58:33 19:01:13 13° 46° (NE) 19:04:13 435.675
BEESAT 3 28 Mar 18:59:56 19:03:24 25° 42° (NE) 19:06:52 437.485
STRAND 1 28 Mar 19:08:46 19:10:49 13° 86° (E) 19:13:10 437.568
RS-15 28 Mar 19:11:00 19:20:16 36° 108° (ESE) 19:29:55 29.354- 29.394
GONETS M04 28 Mar 19:24:36 19:31:51 32° 84° (E) 19:39:20
AIST 2 28 Mar 19:27:43 19:30:45 19° 37° (NE) 19:33:49 435.215
SO-50 28 Mar 19:52:52 19:57:16 45° 119° (ESE) 20:01:52 436.795
AUBIESAT-1 28 Mar 19:57:16 20:01:48 40° 296° (WNW) 20:06:14 437.475
BEESAT 2 28 Mar 19:59:14 20:03:24 70° 53° (NE) 20:07:29 435.950
PRISM 28 Mar 19:59:35 20:03:43 55° 100° (E) 20:07:47 437.425
BRITE-PL 28 Mar 19:59:56 20:03:28 22° 67° (ENE) 20:06:56 437.365/2234.400
Cubesat XI-IV 28 Mar 20:05:34 20:09:50 23° 268° (W) 20:14:00 437.490
CUTE-I 28 Mar 20:05:39 20:09:56 23° 268° (W) 20:14:06 437.470
AAUSAT CUBESAT 2 28 Mar 20:20:17 20:21:38 12° 61° (ENE) 20:23:12 437.432
M-CUBED/EXP-1 PRIME 28 Mar 20:21:20 20:25:14 24° 301° (WNW) 20:29:00 437.505
SEEDS 28 Mar 20:21:21 20:23:57 17° 64° (ENE) 20:26:41 437.485
CUBESAT XI-V 28 Mar 20:21:49 20:26:27 70° 286° (WNW) 20:31:02 437.345
CINEMA 3 28 Mar 20:33:55 20:34:58 11° 61° (ENE) 20:36:13 145.822/145.860
BEESAT 3 28 Mar 20:37:43 20:41:38 41° 241° (WSW) 20:45:27 437.485
HO-68 28 Mar 20:40:38 20:47:32 54° 66° (ENE) 20:54:31 435.675
COMPASS 1 28 Mar 20:44:29 20:47:44 23° 67° (ENE) 20:51:06 437.405
DOVE 4 28 Mar 20:44:42 20:48:17 26° 68° (ENE) 20:51:50 437.250
STRAND 1 28 Mar 20:45:40 20:50:50 84° 283° (WNW) 20:55:55 437.568
GOMX 1 28 Mar 20:50:44 20:55:00 45° 72° (ENE) 20:59:05 467.674
AIST 2 28 Mar 21:05:35 21:09:51 72° 237° (WSW) 21:14:01 435.215
CANX-2 28 Mar 21:10:27 21:14:39 67° 75° (ENE) 21:18:54 2200.000
DANDE 28 Mar 21:18:03 21:19:09 12° 95° (E) 21:20:21 436.750
GONETS M04 28 Mar 21:19:40 21:28:15 61° 284° (WNW) 21:36:54
RS-15 28 Mar 21:21:00 21:31:55 72° 311° (NW) 21:43:05 29.354- 29.394
CUTE 1.7 + AOD 2 28 Mar 21:24:30 21:28:44 86° 77° (ENE) 21:33:02 437.475
SO-50 28 Mar 21:33:51 21:38:00 30° 319° (NW) 21:42:15 436.795
PRISM 28 Mar 21:36:13 21:38:49 16° 297° (WNW) 21:41:15 437.425
BRITE-PL 28 Mar 21:37:24 21:41:52 40° 262° (W) 21:46:03 437.365/2234.400
DELFI C3 28 Mar 21:38:28 21:41:53 27° 69° (ENE) 21:45:25 145.870
BEESAT 2 28 Mar 21:39:02 21:41:03 13° 249° (WSW) 21:42:53 435.950
UKube-1 28 Mar 21:42:50 21:45:46 18° 63° (ENE) 21:48:49 .
DX 1 28 Mar 21:51:16 21:54:41 23° 66° (ENE) 21:58:11 434.975-435.025
AAUSAT CUBESAT 2 28 Mar 21:52:33 21:56:44 78° 260° (W) 22:00:57 437.432
SEEDS 28 Mar 21:55:17 21:59:24 52° 261° (W) 22:03:34 437.485
HUMSAT D 28 Mar 21:56:37 21:59:01 16° 64° (ENE) 22:01:35 437.325/437.525
CINEMA 3 28 Mar 22:07:27 22:11:40 80° 258° (WSW) 22:15:50 145.822/145.860
